ATLAS 5 CENTAUR DEB, 44661

Orbit data source: Space-Track

ATLAS 5 CENTAUR DEB, 44661 is space debris in HEO originally from a launch on Wed, 17 Oct 2018 UTC launched from the Air Force Eastern Test Range (AFETR). Debris objects in space refer to the collection of defunct objects orbiting the Earth. Examples of debris include non-operational satellites, rocket bodies, and fragments generated from explosions, collisions, or faulty payload assembly.

Loading next visibility...
Identifier
44661, 2018-079X
Orbit
HEO
Country
Flag of USUS
Related business
Flag of USUnited Launch Alliance/Lockheed Martin (US)
Manufacturer
ULA Decatur
Mission
Spacecraft
Bus & Motor
Unknown
Mass
Unknown
Launch date (UTC)
2018-10-17 (8 years ago)
Launch vehicle
Unknown
Launch site
Air Force Eastern Test Range (AFETR)
Object type
Payload
Rocket body
Debris
Shape & HBR
Unknown shape, 1.1 m
Radar Cross Section
Medium (>0.1 m² and <1 m²)

Expand to show TLE details & history
Last TLE update: 1 day ago

TLE from 1 day ago
0 ATLAS 5 CENTAUR DEB
1 44661U 18079X   26248.85900728 -.00000159  00000-0  00000-0 0  9993
2 44661  13.1264  55.6245 4624615 271.1204  38.2078  1.72652143 49992
Epoch: 2026-09-05T20:36Z
TLE epoch observation values (Epoch: 2026-09-05T20:36:58.228Z)
Latitude
-0.00008°
Longitude
121.50159°
Altitude
16,467.525 km
Speed
4.617 km/s
True Right ascension
03h 42m 49s
True Declination
0° 00' 00"
Sunlit
Object was in daylight at epoch
Visualization orbit readout
Latitude
Unknown
Longitude
Unknown
Altitude
Unknown
Speed
Unknown
Apparent Right ascension
Unknown
Apparent Declination
Unknown
Sunlit
N/A
Visualization observer readout
Local Sidereal Time
12:27:54
Azimuth
Unknown
Elevation
Unknown
Doppler factor
Unknown
Orbital elements
Apogee altitude
36,549.267 km
Perigee altitude
9,400.147 km
Semi-major axis
29,352.844 km
Eccentricity
0.46246
Inclination
13.1264°
RAAN
55.6245°
Arg. of periapsis
271.1204°
True anomaly
88.9105°
Mean anomaly
38.2078°
Eccentric anomaly
61.49217°
Mean motion
0.43159 °/min
Orbital period
834.13 mins
BSTAR
0
Loading maneuver chart data...
Computing Atmospheric mass density...

Documentation

Showing up to 5 results
|